Regional Weather Roundup
Issued by NWS Northern Indiana

Home | Current Version | Previous Version | Text Only | Print | Product List | Glossary On
Versions: 1 2 3 4 5 6 7 8 9 10 11 12 13 14 15 16 17 18 19 20 21 22 23 24 25 26 27 28 29 30 31 32 33 34 35 36 37 38 39 40 41 42 43 44 45 46 47 48 49 50
457
ASUS43 KIWX 101310
RWRIWX

KIWX WEATHER ROUNDUP
NATIONAL WEATHER SERVICE NORTHERN INDIANA
800 AM EST SAT DEC 10 2016

NOTE: "FAIR" INDICATES FEW OR NO CLOUDS BELOW 12,000 FEET WITH NO
SIGNIFICANT WEATHER AND/OR OBSTRUCTIONS TO VISIBILITY.

* THESE STATIONS ARE NOT UNDER NWS QUALITY CONTROL. THEY ALSO MAY NOT
  REPORT WEATHER SUCH AS PRECIPITATION OR FOG.

INZ001>027-101400-
NORTHERN INDIANA

CITY           SKY/WX    TMP DP  RH WIND       PRES   REMARKS
GARY*          MOCLDY    21  16  79 W10       30.52F WCI  10
VALPARAISO     CLOUDY    21  14  74 SW8       30.51S WCI  11
MICHIGAN CITY* LGT SNOW  21  16  79 SW7       30.51S WCI  13
LAPORTE*       CLOUDY    19  14  79 SW9       30.50F WCI   9
KNOX*          CLOUDY    21   1  42 W7        30.52S WCI  13
SOUTH BEND     CLOUDY    18  12  79 SW12      30.49S WCI   5
ELKHART*       CLOUDY    19  12  73 SW7       30.48  WCI  10
GOSHEN         CLOUDY    21  11  65 W12       30.49S WCI   9
MONTICELLO*    CLOUDY    22  12  64 W6        30.52F WCI  15
LOGANSPORT*    CLOUDY    23  16  74 W6        30.52F WCI  16
ROCHESTER*     CLOUDY    23  19  86 CALM      30.51F
WARSAW*        CLOUDY    21  12  68 W8        30.50F WCI  12
ANGOLA*        CLOUDY    19  14  79 W7        30.45F WCI  10
FORT WAYNE     CLOUDY    20  14  77 W7        30.51S WCI  11
HUNTINGTON*    CLOUDY    20  14  77 W3        30.52R
PERU/GRISSOM   CLOUDY    23  15  72 W8        30.49F WCI  14
MARION*        CLOUDY    22  17  79 W8        30.52F WCI  13

$$
INZ028>050-101400-
CENTRAL INDIANA

CITY           SKY/WX    TMP DP  RH WIND       PRES   REMARKS
LAFAYETTE      CLOUDY    21  17  84 SW5       30.54F WCI  15
KOKOMO*        CLOUDY    23  17  78 W9        30.52F WCI  13
MUNCIE*        CLOUDY    24  16  71 W6        30.51F WCI  17
INDIANAPOLIS   CLOUDY    21  15  78 W8        30.54S WCI  11

$$
MIZ043>046-050>051-056>058-064>065-071>073-077>080-101400-
SOUTHWEST LOWER MICHIGAN

CITY           SKY/WX    TMP DP  RH WIND       PRES   REMARKS
BATTLE CREEK   LGT SNOW  21  18  88 SW13      30.44R FOG     WCI   9
BENTON HARBOR  LGT SNOW  25  19  78 W17       30.47S WCI  12
COLDWATER*     LGT SNOW  19  17  89 SW6       30.45S WCI  11
HILLSDALE*     LGT SNOW  18  14  86 SW6       30.43S WCI   9
HOLLAND        FLURRIES  26  18  71 W10       30.43S WCI  16
GRAND RAPIDS   LGT SNOW  22  19  89 SW7       30.42S FOG     WCI  13
KALAMAZOO      LGT SNOW  21  17  84 SW10      30.45R FOG     WCI  10
STURGIS*       CLOUDY    19  14  82 SW7       30.46S WCI  10
THREE RIVERS*  CLOUDY    20  16  84 SW6       30.47S WCI  12

$$
OHZ001>008-015>018-024>025-101400-
NORTHWEST OHIO

CITY           SKY/WX    TMP DP  RH WIND       PRES   REMARKS
WAUSEON*       CLOUDY    19  16  86 W12       30.47S WCI   7
DEFIANCE       MOCLDY    21  13  71 SW6       30.50S WCI  13
FINDLAY        CLOUDY    21  12  68 W12       30.50R WCI   9
TOLEDO EXPRESS PTCLDY    20  15  81 W13       30.48R WCI   7
TOLEDO METCALF CLOUDY    22  15  75 W10       30.49S WCI  11
LIMA           CLOUDY    18  14  84 SW6       30.50R WCI  10

$$
AND FOR LAKE MICHIGAN COASTAL AND OPEN LAKE BUOY OBSERVATIONS

STATION/POSITION TEMP    WIND        PRES    VSBY  WAVE
                 AIR SEA DIR/SP/G                  HT/PER
                 (F)     (DEG/KT/KT) (MB)    (MI)  (FT/S)
CALUMET HARBOR    20     240/  7/ 11 1032.3F
BURNS HARBOR      22     220/ 12/ 15 1033.2F
SAINT JOSEPH      27     260/ 15/ 21 1032.5

$$
&&




USA.gov is the U.S. government's official web portal to all federal, state and local government web resources and services.